Time,TemperatureF,DewpointF,PressureIn,WindDirection,WindDirectionDegrees,WindSpeedMPH,WindSpeedGustMPH,Humidity,HourlyPrecipIn,Conditions,Clouds,dailyrainin,SoftwareType,DateUTC
2013-06-15 00:04:00,65.5,64.0,30.01,NNW,331,0.0,-999.0,94,-99.99,,,0.20,weatherlink.com 1.10,2013-06-15 05:04:00,
2013-06-15 00:19:00,65.4,64.0,30.06,NW,313,2.0,-999.0,95,-99.99,,,0.20,weatherlink.com 1.10,2013-06-15 05:19:00,
2013-06-15 00:39:00,65.3,64.0,30.03,South,187,0.0,-999.0,95,-99.99,,,0.07,weatherlink.com 1.10,2013-06-15 05:39:00,
2013-06-15 00:48:00,65.4,64.0,30.05,South,187,0.0,-999.0,95,-99.99,,,0.22,weatherlink.com 1.10,2013-06-15 05:48:00,
2013-06-15 01:04:00,65.4,64.0,30.05,SW,217,6.0,-999.0,96,-99.99,,,0.38,weatherlink.com 1.10,2013-06-15 06:04:00,
2013-06-15 01:19:00,65.3,64.0,30.06,SE,140,0.0,-999.0,96,-99.99,,,0.41,weatherlink.com 1.10,2013-06-15 06:19:00,
2013-06-15 01:34:00,65.4,64.0,30.05,SE,140,0.0,-999.0,96,-99.99,,,0.43,weatherlink.com 1.10,2013-06-15 06:34:00,
2013-06-15 01:49:00,65.7,65.0,30.02,SE,124,0.0,-999.0,96,-99.99,,,0.48,weatherlink.com 1.10,2013-06-15 06:49:00,
2013-06-15 02:04:00,65.1,64.0,29.97,East,94,1.0,-999.0,97,-99.99,,,0.52,weatherlink.com 1.10,2013-06-15 07:04:00,
2013-06-15 02:19:00,65.0,64.0,29.99,ESE,112,0.0,-999.0,97,-99.99,,,0.55,weatherlink.com 1.10,2013-06-15 07:19:00,
2013-06-15 02:39:00,64.9,64.0,29.97,East,94,2.0,-999.0,97,-99.99,,,0.57,weatherlink.com 1.10,2013-06-15 07:39:00,
2013-06-15 02:50:00,64.8,64.0,29.93,East,93,4.0,-999.0,97,-99.99,,,0.57,weatherlink.com 1.10,2013-06-15 07:50:00,
2013-06-15 03:05:00,64.4,64.0,29.91,East,88,0.0,-999.0,97,-99.99,,,0.57,weatherlink.com 1.10,2013-06-15 08:05:00,
2013-06-15 03:20:00,64.1,63.0,29.91,East,88,0.0,-999.0,97,-99.99,,,0.57,weatherlink.com 1.10,2013-06-15 08:20:00,
2013-06-15 03:39:00,64.0,63.0,29.93,SE,128,0.0,-999.0,97,-99.99,,,0.57,weatherlink.com 1.10,2013-06-15 08:39:00,
2013-06-15 03:50:00,63.9,63.0,29.93,SE,128,0.0,-999.0,97,-99.99,,,0.57,weatherlink.com 1.10,2013-06-15 08:50:00,
2013-06-15 04:05:00,63.6,63.0,29.92,SE,128,0.0,-999.0,97,-99.99,,,0.57,weatherlink.com 1.10,2013-06-15 09:05:00,
2013-06-15 04:20:00,63.4,63.0,29.91,SE,128,0.0,-999.0,97,-99.99,,,0.57,weatherlink.com 1.10,2013-06-15 09:20:00,
2013-06-15 04:35:00,63.4,63.0,29.90,SE,128,0.0,-999.0,97,-99.99,,,0.57,weatherlink.com 1.10,2013-06-15 09:35:00,
2013-06-15 04:50:00,63.1,62.0,29.91,SE,128,0.0,-999.0,97,-99.99,,,0.57,weatherlink.com 1.10,2013-06-15 09:50:00,
2013-06-15 05:05:00,63.2,62.0,29.91,SE,128,0.0,-999.0,97,-99.99,,,0.57,weatherlink.com 1.10,2013-06-15 10:05:00,
2013-06-15 05:20:00,63.5,63.0,29.91,SE,128,0.0,-999.0,98,-99.99,,,0.57,weatherlink.com 1.10,2013-06-15 10:20:00,
2013-06-15 05:39:00,63.6,63.0,29.91,SE,128,0.0,-999.0,98,-99.99,,,0.57,weatherlink.com 1.10,2013-06-15 10:39:00,
2013-06-15 05:51:00,63.6,63.0,29.91,SE,128,0.0,-999.0,98,-99.99,,,0.57,weatherlink.com 1.10,2013-06-15 10:51:00,
2013-06-15 06:06:00,63.6,63.0,29.93,SE,128,0.0,-999.0,98,-99.99,,,0.57,weatherlink.com 1.10,2013-06-15 11:06:00,
2013-06-15 06:21:00,63.8,63.0,29.94,SE,128,0.0,-999.0,98,-99.99,,,0.57,weatherlink.com 1.10,2013-06-15 11:21:00,
2013-06-15 06:39:00,64.0,64.0,29.95,SE,128,0.0,-999.0,98,-99.99,,,0.57,weatherlink.com 1.10,2013-06-15 11:39:00,
2013-06-15 06:51:00,64.1,64.0,29.95,SE,128,0.0,-999.0,98,-99.99,,,0.57,weatherlink.com 1.10,2013-06-15 11:51:00,
2013-06-15 07:06:00,64.5,64.0,29.95,SE,128,0.0,-999.0,98,-99.99,,,0.57,weatherlink.com 1.10,2013-06-15 12:06:00,
2013-06-15 07:21:00,65.0,65.0,29.95,SE,128,0.0,-999.0,98,-99.99,,,0.57,weatherlink.com 1.10,2013-06-15 12:21:00,
2013-06-15 07:39:00,65.4,65.0,29.96,SE,128,0.0,-999.0,98,-99.99,,,0.57,weatherlink.com 1.10,2013-06-15 12:39:00,
2013-06-15 07:51:00,65.9,65.0,29.97,SE,128,0.0,-999.0,98,-99.99,,,0.57,weatherlink.com 1.10,2013-06-15 12:51:00,
2013-06-15 08:07:00,66.4,66.0,29.97,SE,128,0.0,-999.0,98,-99.99,,,0.57,weatherlink.com 1.10,2013-06-15 13:07:00,
2013-06-15 08:22:00,66.8,66.0,29.97,SE,128,0.0,-999.0,98,-99.99,,,0.57,weatherlink.com 1.10,2013-06-15 13:22:00,
2013-06-15 08:37:00,67.4,67.0,29.97,ESE,117,0.0,-999.0,97,-99.99,,,0.57,weatherlink.com 1.10,2013-06-15 13:37:00,
2013-06-15 08:52:00,68.0,67.0,29.97,ESE,113,4.0,-999.0,96,-99.99,,,0.57,weatherlink.com 1.10,2013-06-15 13:52:00,
2013-06-15 09:07:00,68.5,67.0,29.96,ESE,107,0.0,-999.0,94,-99.99,,,0.57,weatherlink.com 1.10,2013-06-15 14:07:00,
2013-06-15 09:22:00,70.2,69.0,29.96,East,98,4.0,-999.0,94,-99.99,,,0.57,weatherlink.com 1.10,2013-06-15 14:22:00,
2013-06-15 09:37:00,71.6,68.0,29.97,ESE,113,5.0,-999.0,89,-99.99,,,0.57,weatherlink.com 1.10,2013-06-15 14:37:00,
2013-06-15 09:52:00,71.0,68.0,29.97,ESE,107,0.0,-999.0,91,-99.99,,,0.57,weatherlink.com 1.10,2013-06-15 14:52:00,
2013-06-15 10:07:00,71.2,68.0,29.96,ESE,121,6.0,-999.0,90,-99.99,,,0.57,weatherlink.com 1.10,2013-06-15 15:07:00,
2013-06-15 10:22:00,71.0,68.0,29.96,ESE,115,7.0,-999.0,89,-99.99,,,0.57,weatherlink.com 1.10,2013-06-15 15:22:00,
2013-06-15 10:37:00,70.0,67.0,29.95,SE,135,9.0,-999.0,91,-99.99,,,0.57,weatherlink.com 1.10,2013-06-15 15:37:00,
2013-06-15 10:52:00,69.6,67.0,29.95,ESE,123,0.0,-999.0,91,-99.99,,,0.57,weatherlink.com 1.10,2013-06-15 15:52:00,
2013-06-15 11:07:00,69.6,67.0,29.95,ESE,117,0.0,-999.0,92,-99.99,,,0.57,weatherlink.com 1.10,2013-06-15 16:07:00,
2013-06-15 11:22:00,70.4,68.0,29.93,ESE,115,2.0,-999.0,92,-99.99,,,0.57,weatherlink.com 1.10,2013-06-15 16:22:00,
2013-06-15 11:37:00,71.5,69.0,29.94,ESE,107,0.0,-999.0,92,-99.99,,,0.57,weatherlink.com 1.10,2013-06-15 16:37:00,
2013-06-15 11:52:00,72.6,70.0,29.95,ESE,107,0.0,-999.0,90,-99.99,,,0.57,weatherlink.com 1.10,2013-06-15 16:52:00,
2013-06-15 12:08:00,73.7,70.0,29.95,ESE,107,0.0,-999.0,89,-99.99,,,0.57,weatherlink.com 1.10,2013-06-15 17:08:00,
2013-06-15 12:23:00,74.3,70.0,29.96,ESE,108,0.0,-999.0,87,-99.99,,,0.57,weatherlink.com 1.10,2013-06-15 17:23:00,
2013-06-15 12:38:00,75.5,71.0,29.97,SE,140,0.0,-999.0,86,-99.99,,,0.57,weatherlink.com 1.10,2013-06-15 17:38:00,
2013-06-15 12:53:00,76.5,72.0,29.95,SE,140,0.0,-999.0,87,-99.99,,,0.57,weatherlink.com 1.10,2013-06-15 17:53:00,
2013-06-15 13:08:00,77.5,73.0,29.96,SE,140,1.0,-999.0,85,-99.99,,,0.57,weatherlink.com 1.10,2013-06-15 18:08:00,
2013-06-15 13:23:00,78.6,73.0,29.95,SE,140,0.0,-999.0,83,-99.99,,,0.57,weatherlink.com 1.10,2013-06-15 18:23:00,
2013-06-15 13:39:00,79.5,73.0,29.95,SSE,148,0.0,-999.0,80,-99.99,,,0.57,weatherlink.com 1.10,2013-06-15 18:39:00,
2013-06-15 13:53:00,79.8,73.0,29.94,SSE,148,0.0,-999.0,80,-99.99,,,0.57,weatherlink.com 1.10,2013-06-15 18:53:00,
2013-06-15 14:08:00,80.0,74.0,29.95,SSE,148,0.0,-999.0,81,-99.99,,,0.57,weatherlink.com 1.10,2013-06-15 19:08:00,
2013-06-15 14:24:00,80.4,73.0,29.94,SSE,148,0.0,-999.0,79,-99.99,,,0.57,weatherlink.com 1.10,2013-06-15 19:24:00,
2013-06-15 14:39:00,80.7,74.0,29.94,SSE,148,0.0,-999.0,80,-99.99,,,0.57,weatherlink.com 1.10,2013-06-15 19:39:00,
2013-06-15 14:54:00,81.0,73.0,29.94,SSE,148,0.0,-999.0,77,-99.99,,,0.57,weatherlink.com 1.10,2013-06-15 19:54:00,
2013-06-15 15:09:00,80.3,73.0,29.94,SSE,148,0.0,-999.0,79,-99.99,,,0.57,weatherlink.com 1.10,2013-06-15 20:09:00,
2013-06-15 15:24:00,80.3,73.0,29.93,South,180,0.0,-999.0,79,-99.99,,,0.57,weatherlink.com 1.10,2013-06-15 20:24:00,
2013-06-15 15:39:00,80.4,73.0,29.91,South,170,0.0,-999.0,79,-99.99,,,0.57,weatherlink.com 1.10,2013-06-15 20:39:00,
2013-06-15 15:54:00,79.9,73.0,29.90,NW,323,0.0,-999.0,80,-99.99,,,0.57,weatherlink.com 1.10,2013-06-15 20:54:00,
2013-06-15 16:09:00,79.1,72.0,29.89,North,351,0.0,-999.0,79,-99.99,,,0.57,weatherlink.com 1.10,2013-06-15 21:09:00,
2013-06-15 16:24:00,79.2,72.0,29.89,NW,323,0.0,-999.0,78,-99.99,,,0.57,weatherlink.com 1.10,2013-06-15 21:24:00,
2013-06-15 16:39:00,79.1,71.0,29.90,WNW,302,0.0,-999.0,76,-99.99,,,0.57,weatherlink.com 1.10,2013-06-15 21:39:00,
2013-06-15 16:54:00,78.5,71.0,29.90,South,172,0.0,-999.0,78,-99.99,,,0.57,weatherlink.com 1.10,2013-06-15 21:54:00,
2013-06-15 17:09:00,77.2,71.0,29.89,SSE,167,2.0,-999.0,82,-99.99,,,0.57,weatherlink.com 1.10,2013-06-15 22:09:00,
2013-06-15 17:24:00,76.8,72.0,29.91,South,186,1.0,-999.0,84,-99.99,,,0.57,weatherlink.com 1.10,2013-06-15 22:24:00,
2013-06-15 17:39:00,76.6,72.0,29.92,SSE,161,7.0,-999.0,85,-99.99,,,0.57,weatherlink.com 1.10,2013-06-15 22:39:00,
2013-06-15 17:54:00,74.1,70.0,29.90,SSW,196,10.0,-999.0,87,-99.99,,,0.57,weatherlink.com 1.10,2013-06-15 22:54:00,
2013-06-15 18:10:00,73.6,70.0,29.89,SW,232,8.0,-999.0,89,-99.99,,,0.57,weatherlink.com 1.10,2013-06-15 23:10:00,
2013-06-15 18:25:00,73.8,70.0,29.88,SW,228,0.0,-999.0,88,-99.99,,,0.57,weatherlink.com 1.10,2013-06-15 23:25:00,
2013-06-15 18:39:00,74.0,70.0,29.88,SW,228,0.0,-999.0,87,-99.99,,,0.57,weatherlink.com 1.10,2013-06-15 23:39:00,
2013-06-15 18:55:00,74.5,71.0,29.88,SW,221,0.0,-999.0,89,-99.99,,,0.57,weatherlink.com 1.10,2013-06-15 23:55:00,
2013-06-15 19:10:00,74.0,70.0,29.90,ESE,122,0.0,-999.0,88,-99.99,,,0.57,weatherlink.com 1.10,2013-06-16 00:10:00,
2013-06-15 19:25:00,73.7,71.0,29.90,ESE,122,0.0,-999.0,90,-99.99,,,0.57,weatherlink.com 1.10,2013-06-16 00:25:00,
2013-06-15 19:40:00,73.5,70.0,29.93,SE,144,10.0,-999.0,88,-99.99,,,0.57,weatherlink.com 1.10,2013-06-16 00:40:00,
2013-06-15 19:55:00,72.5,67.0,29.94,SSE,148,12.0,-999.0,84,-99.99,,,0.57,weatherlink.com 1.10,2013-06-16 00:55:00,
2013-06-15 20:10:00,71.0,67.0,29.94,South,190,12.0,-999.0,86,-99.99,,,0.57,weatherlink.com 1.10,2013-06-16 01:10:00,
2013-06-15 20:25:00,70.7,66.0,29.95,South,180,21.0,-999.0,84,-99.99,,,0.57,weatherlink.com 1.10,2013-06-16 01:25:00,
2013-06-15 20:40:00,70.5,66.0,29.96,SSE,164,14.0,-999.0,84,-99.99,,,0.57,weatherlink.com 1.10,2013-06-16 01:40:00,
2013-06-15 20:55:00,70.3,66.0,29.96,South,184,10.0,-999.0,86,-99.99,,,0.57,weatherlink.com 1.10,2013-06-16 01:55:00,
2013-06-15 21:10:00,69.8,66.0,29.96,ESE,120,8.0,-999.0,87,-99.99,,,0.57,weatherlink.com 1.10,2013-06-16 02:10:00,
2013-06-15 21:25:00,69.3,66.0,29.97,South,179,7.0,-999.0,88,-99.99,,,0.57,weatherlink.com 1.10,2013-06-16 02:25:00,
2013-06-15 21:40:00,69.2,66.0,29.97,SE,146,7.0,-999.0,89,-99.99,,,0.57,weatherlink.com 1.10,2013-06-16 02:40:00,
2013-06-15 21:56:00,69.0,66.0,29.97,South,170,8.0,-999.0,89,-99.99,,,0.57,weatherlink.com 1.10,2013-06-16 02:56:00,
2013-06-15 22:11:00,68.9,66.0,29.97,SSE,167,1.0,-999.0,90,-99.99,,,0.57,weatherlink.com 1.10,2013-06-16 03:11:00,
2013-06-15 22:26:00,68.5,66.0,29.97,SSE,149,0.0,-999.0,91,-99.99,,,0.57,weatherlink.com 1.10,2013-06-16 03:26:00,
2013-06-15 22:41:00,68.0,66.0,29.96,SE,144,7.0,-999.0,92,-99.99,,,0.57,weatherlink.com 1.10,2013-06-16 03:41:00,
2013-06-15 22:56:00,67.9,66.0,29.96,South,172,8.0,-999.0,92,-99.99,,,0.57,weatherlink.com 1.10,2013-06-16 03:56:00,
2013-06-15 23:11:00,67.6,65.0,29.96,South,171,0.0,-999.0,92,-99.99,,,0.57,weatherlink.com 1.10,2013-06-16 04:11:00,
2013-06-15 23:26:00,67.4,65.0,29.96,South,185,0.0,-999.0,92,-99.99,,,0.57,weatherlink.com 1.10,2013-06-16 04:26:00,
2013-06-15 23:41:00,67.3,65.0,29.95,SSE,162,0.0,-999.0,93,-99.99,,,0.57,weatherlink.com 1.10,2013-06-16 04:41:00,
2013-06-15 23:56:00,67.3,65.0,29.95,SE,144,5.0,-999.0,93,-99.99,,,0.57,weatherlink.com 1.10,2013-06-16 04:56:00,